• In Romania
  • List of Countries
  • For 7 days
  • Water Temperature
  • Satellite Maps
  • Weather Map
  • Weather Widgets
  • user-avatar
    Login

    Hourly Weather Lezhe

    Today, 27 April, Thursday

    Time Temperature Precipitation Wind Pressure Humidity
    00:00 +10°C° 0 mm 2 mps 738 mmHg 84%
    01:00 +10°C° 0 mm 2 mps 738 mmHg 82%
    02:00 +9°C° 0 mm 2 mps 738 mmHg 81%
    03:00 +9°C° 0 mm 2 mps 738 mmHg 79%
    04:00 +9°C° 0 mm 2 mps 738 mmHg 78%
    05:00 +13°C° 0 mm 2 mps 738 mmHg 71%
    06:00 +15°C° 0 mm 1 mps 738 mmHg 65%
    07:00 +18°C° 0 mm 1 mps 738 mmHg 58%
    08:00 +20°C° 0 mm 1 mps 738 mmHg 52%
    09:00 +21°C° 0 mm 2 mps 738 mmHg 46%
    10:00 +23°C° 0 mm 2 mps 738 mmHg 40%
    11:00 +24°C° 0 mm 2 mps 738 mmHg 40%
    12:00 +24°C° 0 mm 2 mps 738 mmHg 39%
    13:00 +25°C° 0 mm 3 mps 738 mmHg 39%
    14:00 +24°C° 0 mm 3 mps 737 mmHg 41%
    15:00 +23°C° 0 mm 2 mps 737 mmHg 43%
    16:00 +23°C° 0 mm 2 mps 737 mmHg 46%
    17:00 +19°C° 0 mm 2 mps 737 mmHg 56%
    18:00 +17°C° 0 mm 2 mps 737 mmHg 66%
    19:00 +14°C° 0 mm 1 mps 737 mmHg 76%
    20:00 +14°C° 0 mm 2 mps 737 mmHg 75%
    21:00 +13°C° 0 mm 2 mps 737 mmHg 75%
    22:00 +13°C° 0 mm 2 mps 737 mmHg 75%
    23:00 +13°C° 0 mm 2 mps 737 mmHg 72%

    Tomorrow, 28 April, Friday

    Time Temperature Precipitation Wind Pressure Humidity
    00:00 +13°C° 0 mm 1 mps 737 mmHg 70%
    01:00 +13°C° 0 mm 1 mps 737 mmHg 67%
    02:00 +13°C° 0 mm 1 mps 737 mmHg 68%
    03:00 +12°C° 0 mm 2 mps 737 mmHg 70%
    04:00 +12°C° 0 mm 2 mps 737 mmHg 71%
    05:00 +14°C° 0 mm 2 mps 737 mmHg 65%
    06:00 +16°C° 0 mm 2 mps 737 mmHg 60%
    07:00 +19°C° 0 mm 2 mps 737 mmHg 55%
    08:00 +20°C° 0 mm 2 mps 737 mmHg 48%
    09:00 +22°C° 0 mm 3 mps 736 mmHg 41%
    10:00 +24°C° 0 mm 3 mps 736 mmHg 35%
    11:00 +23°C° 0 mm 4 mps 736 mmHg 36%
    12:00 +25°C° 0 mm 4 mps 736 mmHg 37%
    13:00 +25°C° 0 mm 5 mps 735 mmHg 38%
    14:00 +23°C° 0.1 mm 4 mps 735 mmHg 45%
    15:00 +21°C° 0.1 mm 3 mps 735 mmHg 53%
    16:00 +20°C° 0.1 mm 3 mps 735 mmHg 60%
    17:00 +18°C° 0 mm 3 mps 735 mmHg 65%
    18:00 +17°C° 0 mm 2 mps 735 mmHg 69%
    19:00 +15°C° 0 mm 2 mps 735 mmHg 74%
    20:00 +15°C° 0 mm 2 mps 735 mmHg 72%
    21:00 +14°C° 0 mm 2 mps 735 mmHg 71%
    22:00 +13°C° 0 mm 3 mps 735 mmHg 70%
    23:00 +14°C° 0 mm 2 mps 735 mmHg 71%

    Day after tomorrow, 29 April, Saturday

    Time Temperature Precipitation Wind Pressure Humidity
    00:00 +14°C° 0 mm 2 mps 735 mmHg 72%
    01:00 +13°C° 0 mm 2 mps 735 mmHg 73%
    02:00 +13°C° 0 mm 2 mps 734 mmHg 76%
    03:00 +13°C° 0 mm 2 mps 734 mmHg 79%
    04:00 +12°C° 0 mm 2 mps 734 mmHg 81%
    05:00 +14°C° 0.1 mm 2 mps 734 mmHg 74%
    06:00 +16°C° 0.1 mm 2 mps 734 mmHg 68%
    07:00 +18°C° 0.1 mm 2 mps 734 mmHg 61%
    08:00 +18°C° 0.2 mm 2 mps 734 mmHg 59%
    09:00 +19°C° 0.2 mm 2 mps 734 mmHg 57%
    10:00 +20°C° 0.2 mm 3 mps 734 mmHg 55%
    11:00 +20°C° 0.6 mm 3 mps 734 mmHg 56%
    12:00 +20°C° 0.6 mm 3 mps 734 mmHg 58%
    13:00 +20°C° 0.6 mm 4 mps 734 mmHg 59%
    14:00 +19°C° 0.9 mm 3 mps 734 mmHg 66%
    15:00 +18°C° 0.9 mm 3 mps 734 mmHg 72%
    16:00 +17°C° 0.9 mm 3 mps 734 mmHg 78%
    17:00 +16°C° 1 mm 2 mps 734 mmHg 84%
    18:00 +15°C° 1 mm 2 mps 734 mmHg 90%
    19:00 +14°C° 1 mm 1 mps 735 mmHg 95%
    20:00 +14°C° 0.3 mm 1 mps 735 mmHg 95%
    21:00 +14°C° 0.3 mm 1 mps 735 mmHg 95%
    22:00 +14°C° 0.3 mm 2 mps 735 mmHg 95%
    23:00 +13°C° 0.1 mm 2 mps 735 mmHg 95%

    30 April, Sunday

    Time Temperature Precipitation Wind Pressure Humidity
    00:00 +13°C° 0.1 mm 2 mps 735 mmHg 95%
    01:00 +13°C° 0.1 mm 2 mps 735 mmHg 95%
    02:00 +12°C° 0 mm 2 mps 735 mmHg 94%
    03:00 +12°C° 0 mm 2 mps 735 mmHg 94%
    04:00 +11°C° 0 mm 3 mps 735 mmHg 94%
    05:00 +12°C° 0 mm 3 mps 735 mmHg 90%
    06:00 +13°C° 0 mm 3 mps 736 mmHg 87%
    07:00 +13°C° 0 mm 3 mps 736 mmHg 84%
    08:00 +16°C° 0 mm 3 mps 736 mmHg 74%
    09:00 +18°C° 0 mm 3 mps 736 mmHg 65%
    10:00 +20°C° 0 mm 3 mps 736 mmHg 56%
    11:00 +21°C° 0 mm 3 mps 735 mmHg 52%
    12:00 +22°C° 0 mm 3 mps 735 mmHg 49%
    13:00 +24°C° 0 mm 3 mps 735 mmHg 46%
    14:00 +22°C° 0 mm 3 mps 734 mmHg 48%
    15:00 +22°C° 0 mm 4 mps 734 mmHg 50%
    16:00 +22°C° 0 mm 4 mps 734 mmHg 52%
    17:00 +20°C° 0 mm 4 mps 734 mmHg 59%
    18:00 +18°C° 0 mm 3 mps 734 mmHg 66%
    19:00 +16°C° 0 mm 3 mps 734 mmHg 74%
    20:00 +14°C° 0 mm 3 mps 734 mmHg 74%
    21:00 +14°C° 0 mm 3 mps 735 mmHg 74%
    22:00 +13°C° 0 mm 3 mps 735 mmHg 74%
    23:00 +13°C° 0 mm 3 mps 735 mmHg 75%

    1 May, Monday

    Time Temperature Precipitation Wind Pressure Humidity
    00:00 +13°C° 0 mm 3 mps 735 mmHg 75%
    01:00 +13°C° 0 mm 3 mps 735 mmHg 76%
    02:00 +13°C° 0 mm 2 mps 735 mmHg 77%
    03:00 +13°C° 0 mm 2 mps 735 mmHg 77%
    04:00 +13°C° 0 mm 2 mps 735 mmHg 78%
    05:00 +14°C° 0 mm 2 mps 735 mmHg 74%
    06:00 +16°C° 0 mm 2 mps 735 mmHg 70%
    07:00 +17°C° 0 mm 2 mps 735 mmHg 66%
    08:00 +19°C° 0 mm 2 mps 735 mmHg 59%
    09:00 +23°C° 0 mm 1 mps 735 mmHg 53%
    10:00 +25°C° 0 mm 1 mps 735 mmHg 47%
    11:00 +25°C° 0.2 mm 2 mps 735 mmHg 48%
    12:00 +25°C° 0.2 mm 2 mps 734 mmHg 49%
    13:00 +26°C° 0.2 mm 3 mps 734 mmHg 51%
    14:00 +25°C° 0.3 mm 2 mps 734 mmHg 53%
    15:00 +25°C° 0.3 mm 2 mps 734 mmHg 56%
    16:00 +24°C° 0.3 mm 2 mps 734 mmHg 59%
    17:00 +21°C° 0.1 mm 1 mps 734 mmHg 68%
    18:00 +19°C° 0.1 mm 1 mps 734 mmHg 77%
    19:00 +16°C° 0.1 mm 1 mps 734 mmHg 86%
    20:00 +15°C° 0.1 mm 1 mps 734 mmHg 87%
    21:00 +14°C° 0.1 mm 0 mps 735 mmHg 88%
    22:00 +13°C° 0.1 mm 0 mps 735 mmHg 89%
    23:00 +13°C° 0 mm 0 mps 735 mmHg 89%

    2 May, Tuesday

    Time Temperature Precipitation Wind Pressure Humidity
    00:00 +12°C° 0 mm 0 mps 735 mmHg 89%
    01:00 +12°C° 0 mm 0 mps 735 mmHg 89%
    02:00 +12°C° 0 mm 0 mps 735 mmHg 90%
    03:00 +12°C° 0 mm 0 mps 735 mmHg 90%
    04:00 +11°C° 0 mm 0 mps 735 mmHg 91%
    05:00 +14°C° 0 mm 0 mps 735 mmHg 84%
    06:00 +16°C° 0 mm 0 mps 735 mmHg 77%
    07:00 +19°C° 0 mm 0 mps 735 mmHg 70%
    08:00 +22°C° 0.1 mm 1 mps 735 mmHg 65%
    09:00 +24°C° 0.1 mm 1 mps 735 mmHg 59%
    10:00 +25°C° 0.1 mm 2 mps 735 mmHg 54%
    11:00 +25°C° 0.4 mm 2 mps 735 mmHg 55%
    12:00 +25°C° 0.4 mm 2 mps 735 mmHg 56%
    13:00 +25°C° 0.4 mm 3 mps 735 mmHg 57%
    14:00 +24°C° 0.3 mm 3 mps 735 mmHg 60%
    15:00 +24°C° 0.3 mm 3 mps 734 mmHg 62%
    16:00 +23°C° 0.3 mm 2 mps 734 mmHg 65%
    17:00 +20°C° 0.3 mm 2 mps 734 mmHg 73%
    18:00 +18°C° 0.3 mm 2 mps 735 mmHg 81%
    19:00 +15°C° 0.3 mm 1 mps 735 mmHg 90%
    20:00 +15°C° 0.1 mm 1 mps 735 mmHg 90%
    21:00 +15°C° 0.1 mm 1 mps 735 mmHg 90%
    22:00 +14°C° 0.1 mm 1 mps 735 mmHg 90%
    23:00 +14°C° 0.1 mm 1 mps 735 mmHg 91%
    Show more